DW7779 Weather Reports


Display with metric or nautical units.
time (UTC)temp
F
wind
direction
speed
MPH
gust
MPH
rain 1hr
in
rain 24hr
in
rain mn
in
humidity
%
barometer
mb
20260905091541 51 4.0 8.0 0.00 0.45 0.22 87 1005.9
20260905090038 51 2.0 9.0 0.00 0.45 0.22 87 1005.7
20260905084551 52 4.0 9.0 0.00 0.45 0.22 87 1005.3
20260905083036 52 3.0 12.0 0.00 0.45 0.22 89 1005.2
20260905081540 51 5.0 15.0 0.00 0.45 0.22 94 1004.6
20260905080037 51 5.0 14.0 0.00 0.45 0.22 95 1004.3
20260905074535 51 4.0 10.0 0.00 0.45 0.22 95 1003.9
20260905073034 51 6.0 11.0 0.00 0.45 0.22 95 1003.7
20260905071535 51 5.0 13.0 0.01 0.45 0.22 96 1003.8
20260905070134 51 5.0 12.0 0.02 0.45 0.22 96 1003.8
20260905064532 50 4.0 8.0 0.06 0.45 0.22 95 1003.6
20260905063031 51 3.0 7.0 0.06 0.45 0.22 95 1003.6
20260905061551 51 3.0 10.0 0.06 0.44 0.21 94 1003.6
20260905060048 51 8.0 22.0 0.04 0.43 0.20 91 1003.7
20260905054534 54 8.0 18.0 0.02 0.39 0.16 90 1002.8
20260905053024 55 6.0 12.0 0.02 0.39 0.16 88 1002.4
20260905051533 56 3.0 10.0 0.02 0.39 0.16 90 1002.2
20260905050022 55 5.0 11.0 0.02 0.39 0.16 89 1002.4
20260905044522 58 4.0 9.0 0.01 0.37 0.14 77 1002.4
20260905043022 61 5.0 9.0 0.00 0.36 0.13 68 1001.9
20260905041519 63 5.0 15.0 0.00 0.36 0.13 64 1001.8
20260905040021 62 6.0 21.0 0.00 0.36 0.13 62 1001.9
20260905034520 63 7.0 21.0 0.00 0.36 0.13 61 1001.8
20260905033014 63 7.0 16.0 0.00 0.36 0.13 63 1001.9
20260905031517 62 9.0 17.0 0.00 0.36 0.13 63 1002.1
20260905030011 62 10.0 18.0 0.00 0.36 0.13 64 1002.1
20260905024617 61 9.0 17.0 0.00 0.36 0.13 64 1002.4
20260905023017 62 10.0 24.0 0.00 0.36 0.13 64 1002.5
20260905021508 62 8.0 23.0 0.00 0.36 0.13 68 1002.4
20260905020006 62 9.0 19.0 0.02 0.36 0.13 70 1002.3
20260905014507 60 5.0 13.0 0.02 0.36 0.13 76 1002.3
20260905013006 57 6.0 18.0 0.02 0.36 0.13 82 1002.4
20260905011504 53 5.0 19.0 0.02 0.36 0.13 86 1002.8
20260905010002 59 7.0 20.0 0.00 0.35 0.12 69 1002.7
20260905003058 63 9.0 15.0 0.00 0.35 0.12 76 1001.8
20260905001557 61 8.0 16.0 0.00 0.35 0.12 79 1002.0
20260905000052 61 10.0 18.0 0.00 0.35 0.12 80 1002.0
20260904234550 61 8.0 18.0 0.00 0.35 0.12 82 1002.1
20260904233048 60 9.0 17.0 0.01 0.35 0.12 84 1002.2
20260904231545 59 8.0 17.0 0.01 0.35 0.12 88 1002.2
20260904230058 58 8.0 19.0 0.01 0.35 0.12 93 1002.0
20260904224541 57 6.0 14.0 0.01 0.35 0.12 95 1002.2
20260904223053 56 6.0 15.0 0.00 0.34 0.11 96 1002.1
20260904221534 56 4.0 9.0 0.00 0.34 0.11 97 1002.2
20260904220040 56 1.0 8.0 0.00 0.34 0.11 97 1002.4
20260904214535 55 2.0 6.0 0.00 0.34 0.11 97 1002.5
20260904213034 55 0.0 6.0 0.00 0.34 0.11 97 1002.4
20260904211530 55 0.0 2.0 0.00 0.34 0.11 97 1002.6
20260904210029 55 0.0 4.0 0.00 0.34 0.11 97 1003.0
20260904204527 55 0.0 7.0 0.00 0.34 0.11 97 1003.3
20260904203129 54 0.0 2.0 0.00 0.34 0.11 97 1002.9
20260904201538 55 0.0 3.0 0.00 0.34 0.11 97 1002.9
20260904200040 55 1.0 4.0 0.00 0.34 0.11 97 1003.2
20260904194524 55 0.0 4.0 0.01 0.34 0.11 97 1003.1
20260904193029 55 3.0 9.0 0.01 0.34 0.11 97 1003.1
20260904191521 55 5.0 10.0 0.02 0.34 0.11 96 1003.1
20260904190018 55 3.0 12.0 0.02 0.34 0.11 96 1003.5
20260904184517 55 4.0 12.0 0.02 0.33 0.10 96 1003.9
20260904183016 55 5.0 15.0 0.02 0.33 0.10 96 1004.2
20260904181516 55 6.0 15.0 0.02 0.32 0.09 96 1004.5
20260904180012 55 3.0 7.0 0.01 0.31 0.09 96 1004.5
20260904174511 55 5.0 14.0 0.01 0.31 0.08 97 1005.1
20260904173010 56 2.0 10.0 0.02 0.31 0.08 97 1004.6
20260904171527 56 2.0 10.0 0.02 0.31 0.08 97 1004.1
20260904170008 56 4.0 11.0 0.03 0.31 0.08 97 1004.0
20260904164505 56 5.0 14.0 0.02 0.30 0.07 97 1004.8
20260904163002 56 2.0 9.0 0.02 0.28 0.06 97 1005.7
20260904161612 55 0.0 3.0 0.01 0.28 0.06 97 1006.1
20260904154600 54 0.0 4.0 0.00 0.28 0.05 97 1006.4
20260904153110 54 1.0 3.0 0.00 0.28 0.05 97 1006.6
20260904151551 54 1.0 2.0 0.01 0.28 0.05 97 1007.6
20260904150051 54 0.0 3.0 0.04 0.28 0.05 97 1007.8
20260904144547 54 0.0 4.0 0.19 0.28 0.05 97 1008.2
20260904143101 54 0.0 2.0 0.19 0.28 0.05 97 1008.2
20260904141643 54 0.0 1.0 0.20 0.27 0.04 97 1008.6
20260904140042 54 0.0 1.0 0.20 0.24 0.01 97 1009.5
20260904134536 54 0.0 1.0 0.06 0.09 0.09 97 1009.1
20260904133035 54 0.0 4.0 0.06 0.09 0.09 97 1009.3
20260904131534 54 0.0 2.0 0.02 0.05 0.05 97 1009.7
20260904130032 53 0.0 2.0 0.01 0.03 0.03 97 1009.6
20260904124531 53 0.0 1.0 0.01 0.03 0.03 97 1009.9
20260904123028 52 0.0 0.0 0.02 0.03 0.03 96 1010.0
20260904121526 52 0.0 0.0 0.02 0.03 0.03 96 1010.6
20260904120040 52 0.0 0.0 0.01 0.02 0.02 96 1010.9
20260904114524 53 0.0 0.0 0.01 0.02 0.02 96 1010.7
20260904113022 53 0.0 2.0 0.00 0.02 0.02 96 1010.9
20260904111522 52 0.0 3.0 0.00 0.02 0.02 96 1011.2
20260904110019 52 0.0 0.0 0.01 0.02 0.02 96 1011.5
20260904104515 51 0.0 1.0 0.02 0.02 0.02 95 1011.7
20260904103013 52 0.0 1.0 0.02 0.02 0.02 94 1011.8
20260904101518 52 0.0 0.0 0.02 0.02 0.02 92 1012.0
20260904100113 55 0.0 0.0 0.01 0.01 0.01 85 1012.2
20260904094510 55 0.0 0.0 0.00 0.00 0.00 82 1012.2
20260904093011 56 0.0 1.0 0.00 0.00 0.00 80 1012.3